This is the latest recevied weather packets stored in our database for station/object W0WFX-2. If no packets are shown the sender has not sent any weather packets the latest 10 day(s).
| Time | Temp. | Humidity | Pressure | Rain* | Wind** | Luminosity | Snow |
|---|---|---|---|---|---|---|---|
| 1788187719 | 29.44° C | 53% | 1015.2 hPa | 0 mm | - | 262 W/m² | - |
| 1788187415 | 29.44° C | 54% | 1015.5 hPa | 0 mm | - | 237 W/m² | - |
| 1788187115 | 28.89° C | 56% | 1015.2 hPa | 0 mm | - | 159 W/m² | - |
| 1788186810 | 28.89° C | 57% | 1015.3 hPa | 0 mm | - | 133 W/m² | - |
| 1788186505 | 28.33° C | 57% | 1015.2 hPa | 0 mm | - | 125 W/m² | - |
| 1788186201 | 27.78° C | 58% | 1015.3 hPa | 0 mm | - | 125 W/m² | - |
| 1788185901 | 27.78° C | 58% | 1015.5 hPa | 0 mm | - | 116 W/m² | - |
| 1788185595 | 27.22° C | 59% | 1015.5 hPa | 0 mm | - | 112 W/m² | - |
| 1788185290 | 27.22° C | 60% | 1015.2 hPa | 0 mm | - | 107 W/m² | - |
| 1788184984 | 27.22° C | 60% | 1015.5 hPa | 0 mm | - | 102 W/m² | - |
| 1788184682 | 26.67° C | 60% | 1015.3 hPa | 0 mm | - | 110 W/m² | - |
| 1788184378 | 26.67° C | 59% | 1015.3 hPa | 0 mm | - | 129 W/m² | - |
| 1788184073 | 26.67° C | 59% | 1015.2 hPa | 0 mm | - | 132 W/m² | - |
| 1788183770 | 26.67° C | 60% | 1015.3 hPa | 0 mm | - | 99 W/m² | - |
| 1788183469 | 26.11° C | 60% | 1015.3 hPa | 0 mm | - | 117 W/m² | - |
| 1788183169 | 26.11° C | 60% | 1015.1 hPa | 0 mm | - | 78 W/m² | - |
| 1788182864 | 26.11° C | 59% | 1015.5 hPa | 0 mm | - | 67 W/m² | - |
| 1788182559 | 26.11° C | 59% | 1015.2 hPa | 0 mm | - | 63 W/m² | - |
| 1788182258 | 26.11° C | 59% | 1015.3 hPa | 0 mm | - | 79 W/m² | - |
| 1788181955 | 26.11° C | 60% | 1015.3 hPa | 0 mm | - | 87 W/m² | - |
| 1788181668 | 25.56° C | 59% | 1015.1 hPa | 0 mm | - | 70 W/m² | - |
| 1788181346 | 25.56° C | 61% | 1015.2 hPa | 0 mm | - | 74 W/m² | - |
| 1788181044 | 25° C | 62% | 1015.1 hPa | 0 mm | - | 63 W/m² | - |
| 1788180741 | 25° C | 63% | 1015 hPa | 0 mm | - | 51 W/m² | - |
| 1788180440 | 24.44° C | 63% | 1015 hPa | 0 mm | - | 46 W/m² | - |
* Rain latest hour (hover to see other rain measurements)
** Current wind speed in m/s (hover to see current wind gust speed)